Year,Month,Day,Hour,Minute,Value (Times are PST for temperature in C)
2009,07,05,00,00,15.50
2009,07,05,00,01,15.40
2009,07,05,00,02,15.30
2009,07,05,00,03,15.30
2009,07,05,00,04,15.30
2009,07,05,00,05,15.20
2009,07,05,00,06,15.10
2009,07,05,00,07,15.00
2009,07,05,00,08,15.00
2009,07,05,00,09,14.90
2009,07,05,00,10,14.80
2009,07,05,00,11,14.80
2009,07,05,00,12,14.80
2009,07,05,00,13,14.70
2009,07,05,00,14,14.70
2009,07,05,00,15,14.60
2009,07,05,00,16,14.60
2009,07,05,00,17,14.60
2009,07,05,00,18,14.50
2009,07,05,00,19,14.50
2009,07,05,00,20,14.40
2009,07,05,00,21,14.40
2009,07,05,00,22,14.40
2009,07,05,00,23,14.40
2009,07,05,00,24,14.30
2009,07,05,00,25,14.30
2009,07,05,00,26,14.30
2009,07,05,00,27,14.30
2009,07,05,00,28,14.30
2009,07,05,00,29,14.20
2009,07,05,00,30,14.20
2009,07,05,00,31,14.20
2009,07,05,00,32,14.20
2009,07,05,00,33,14.20
2009,07,05,00,34,14.20
2009,07,05,00,35,14.20
2009,07,05,00,36,14.20
2009,07,05,00,37,14.20
2009,07,05,00,38,14.20
2009,07,05,00,39,14.20
2009,07,05,00,40,14.20
2009,07,05,00,41,14.20
2009,07,05,00,42,14.20
2009,07,05,00,43,14.20
2009,07,05,00,44,14.20
2009,07,05,00,45,14.20
2009,07,05,00,46,14.20
2009,07,05,00,47,14.20
2009,07,05,00,48,14.20
2009,07,05,00,49,14.20
2009,07,05,00,50,14.10
2009,07,05,00,51,14.10
2009,07,05,00,52,14.10
2009,07,05,00,53,14.10
2009,07,05,00,54,14.10
2009,07,05,00,55,14.10
2009,07,05,00,56,14.10
2009,07,05,00,57,14.10
2009,07,05,00,58,14.20
2009,07,05,00,59,14.20
2009,07,05,01,00,14.20
2009,07,05,01,01,14.20
2009,07,05,01,02,14.20
2009,07,05,01,03,14.20
2009,07,05,01,04,14.20
2009,07,05,01,05,14.20
2009,07,05,01,06,14.20
2009,07,05,01,07,14.20
2009,07,05,01,08,14.20
2009,07,05,01,09,14.30
2009,07,05,01,10,14.30
2009,07,05,01,11,14.30
2009,07,05,01,12,14.30
2009,07,05,01,13,14.40
2009,07,05,01,14,14.40
2009,07,05,01,15,14.40
2009,07,05,01,16,14.40
2009,07,05,01,17,14.40
2009,07,05,01,18,14.40
2009,07,05,01,19,14.50
2009,07,05,01,20,14.50
2009,07,05,01,21,14.50
2009,07,05,01,22,14.50
2009,07,05,01,23,14.50
2009,07,05,01,24,14.50
2009,07,05,01,25,14.50
2009,07,05,01,26,14.50
2009,07,05,01,27,14.50
2009,07,05,01,28,14.50
2009,07,05,01,29,14.50
2009,07,05,01,30,14.50
2009,07,05,01,31,14.50
2009,07,05,01,32,14.50
2009,07,05,01,33,14.50
2009,07,05,01,34,14.50
2009,07,05,01,35,14.50
2009,07,05,01,36,14.50
2009,07,05,01,37,14.50
2009,07,05,01,38,14.50
2009,07,05,01,39,14.50
2009,07,05,01,40,14.60
2009,07,05,01,41,14.60
2009,07,05,01,42,14.60
2009,07,05,01,43,14.60
2009,07,05,01,44,14.60
2009,07,05,01,45,14.60
2009,07,05,01,46,14.60
2009,07,05,01,47,14.60
2009,07,05,01,48,14.60
2009,07,05,01,49,14.70
2009,07,05,01,50,14.70
2009,07,05,01,51,14.70
2009,07,05,01,52,14.70
2009,07,05,01,53,14.70
2009,07,05,01,54,14.70
2009,07,05,01,55,14.70
2009,07,05,01,56,14.70
2009,07,05,01,57,14.70
2009,07,05,01,58,14.70
2009,07,05,01,59,14.80
2009,07,05,02,00,14.80
2009,07,05,02,01,14.80
2009,07,05,02,02,14.80
2009,07,05,02,03,14.80
2009,07,05,02,04,14.80
2009,07,05,02,05,14.80
2009,07,05,02,06,14.80
2009,07,05,02,07,14.80
2009,07,05,02,08,14.80
2009,07,05,02,09,14.80
2009,07,05,02,10,14.80
2009,07,05,02,11,14.80
2009,07,05,02,12,14.80
2009,07,05,02,13,14.80
2009,07,05,02,14,14.80
2009,07,05,02,15,14.70
2009,07,05,02,16,14.70
2009,07,05,02,17,14.70
2009,07,05,02,18,14.70
2009,07,05,02,19,14.70
2009,07,05,02,20,14.70
2009,07,05,02,21,14.70
2009,07,05,02,22,14.70
2009,07,05,02,23,14.70
2009,07,05,02,24,14.60
2009,07,05,02,25,14.60
2009,07,05,02,26,14.60
2009,07,05,02,27,14.60
2009,07,05,02,28,14.60
2009,07,05,02,29,14.60
2009,07,05,02,30,14.50
2009,07,05,02,31,14.50
2009,07,05,02,32,14.50
2009,07,05,02,33,14.50
2009,07,05,02,34,14.50
2009,07,05,02,35,14.40
2009,07,05,02,36,14.40
2009,07,05,02,37,14.40
2009,07,05,02,38,14.40
2009,07,05,02,39,14.30
2009,07,05,02,40,14.30
2009,07,05,02,41,14.20
2009,07,05,02,42,14.20
2009,07,05,02,43,14.20
2009,07,05,02,44,14.20
2009,07,05,02,45,14.20
2009,07,05,02,46,14.20
2009,07,05,02,47,14.20
2009,07,05,02,48,14.10
2009,07,05,02,49,14.10
2009,07,05,02,50,14.10
2009,07,05,02,51,14.00
2009,07,05,02,52,14.00
2009,07,05,02,53,14.00
2009,07,05,02,54,13.90
2009,07,05,02,55,13.80
2009,07,05,02,56,13.70
2009,07,05,02,57,13.70
2009,07,05,02,58,13.60
2009,07,05,02,59,13.60
2009,07,05,03,00,13.50
2009,07,05,03,01,13.50
2009,07,05,03,02,13.40
2009,07,05,03,03,13.40
2009,07,05,03,04,13.40
2009,07,05,03,05,13.40
2009,07,05,03,06,13.30
2009,07,05,03,07,13.30
2009,07,05,03,08,13.30
2009,07,05,03,09,13.30
2009,07,05,03,10,13.30
2009,07,05,03,11,13.20
2009,07,05,03,12,13.20
2009,07,05,03,13,13.10
2009,07,05,03,14,13.00
2009,07,05,03,15,12.90
2009,07,05,03,16,12.90
2009,07,05,03,17,12.80
2009,07,05,03,18,12.80
2009,07,05,03,19,12.70
2009,07,05,03,20,12.70
2009,07,05,03,21,12.60
2009,07,05,03,22,12.60
2009,07,05,03,23,12.50
2009,07,05,03,24,12.50
2009,07,05,03,25,12.50
2009,07,05,03,26,12.50
2009,07,05,03,27,12.40
2009,07,05,03,28,12.40
2009,07,05,03,29,12.40
2009,07,05,03,30,12.40
2009,07,05,03,31,12.40
2009,07,05,03,32,12.40
2009,07,05,03,33,12.30
2009,07,05,03,34,12.30
2009,07,05,03,35,12.30
2009,07,05,03,36,12.30
2009,07,05,03,37,12.30
2009,07,05,03,38,12.30
2009,07,05,03,39,12.30
2009,07,05,03,40,12.30
2009,07,05,03,41,12.30
2009,07,05,03,42,12.30
2009,07,05,03,43,12.30
2009,07,05,03,44,12.30
2009,07,05,03,45,12.30
2009,07,05,03,46,12.30
2009,07,05,03,47,12.30
2009,07,05,03,48,12.20
2009,07,05,03,49,12.20
2009,07,05,03,50,12.20
2009,07,05,03,51,12.20
2009,07,05,03,52,12.20
2009,07,05,03,53,12.20
2009,07,05,03,54,12.10
2009,07,05,03,55,12.10
2009,07,05,03,56,12.10
2009,07,05,03,57,12.10
2009,07,05,03,58,12.10
2009,07,05,03,59,12.10
2009,07,05,04,00,12.20
2009,07,05,04,01,12.20
2009,07,05,04,02,12.20
2009,07,05,04,03,12.20
2009,07,05,04,04,12.30
2009,07,05,04,05,12.30
2009,07,05,04,06,12.40
2009,07,05,04,07,12.40
2009,07,05,04,08,12.40
2009,07,05,04,09,12.50
2009,07,05,04,10,12.50
2009,07,05,04,11,12.40
2009,07,05,04,12,12.30
2009,07,05,04,13,12.30
2009,07,05,04,14,12.20
2009,07,05,04,15,12.20
2009,07,05,04,16,12.10
2009,07,05,04,17,12.10
2009,07,05,04,18,12.00
2009,07,05,04,19,12.00
2009,07,05,04,20,12.00
2009,07,05,04,21,11.90
2009,07,05,04,22,11.90
2009,07,05,04,23,11.90
2009,07,05,04,24,11.90
2009,07,05,04,25,11.90
2009,07,05,04,26,12.00
2009,07,05,04,27,12.00
2009,07,05,04,28,12.00
2009,07,05,04,29,12.00
2009,07,05,04,30,12.00
2009,07,05,04,31,12.00
2009,07,05,04,32,12.00
2009,07,05,04,33,12.00
2009,07,05,04,34,12.00
2009,07,05,04,35,12.00
2009,07,05,04,36,12.00
2009,07,05,04,37,12.00
2009,07,05,04,38,12.00
2009,07,05,04,39,12.00
2009,07,05,04,40,12.00
2009,07,05,04,41,12.00
2009,07,05,04,42,12.10
2009,07,05,04,43,12.10
2009,07,05,04,44,12.10
2009,07,05,04,45,12.10
2009,07,05,04,46,12.10
2009,07,05,04,47,12.00
2009,07,05,04,48,12.00
2009,07,05,04,49,12.00
2009,07,05,04,50,11.90
2009,07,05,04,51,11.90
2009,07,05,04,52,11.80
2009,07,05,04,53,11.80
2009,07,05,04,54,11.80
2009,07,05,04,55,11.80
2009,07,05,04,56,11.80
2009,07,05,04,57,11.80
2009,07,05,04,58,11.90
2009,07,05,04,59,11.90
2009,07,05,05,00,12.00
2009,07,05,05,01,12.00
2009,07,05,05,02,12.00
2009,07,05,05,03,12.10
2009,07,05,05,04,12.10
2009,07,05,05,05,12.20
2009,07,05,05,06,12.10
2009,07,05,05,07,12.10
2009,07,05,05,08,12.00
2009,07,05,05,09,11.90
2009,07,05,05,10,11.90
2009,07,05,05,11,11.80
2009,07,05,05,12,11.80
2009,07,05,05,13,11.80
2009,07,05,05,14,11.80
2009,07,05,05,15,11.80
2009,07,05,05,16,11.80
2009,07,05,05,17,11.80
2009,07,05,05,18,11.80
2009,07,05,05,19,11.80
2009,07,05,05,20,11.80
2009,07,05,05,21,11.80
2009,07,05,05,22,11.80
2009,07,05,05,23,11.80
2009,07,05,05,24,11.80
2009,07,05,05,25,11.90
2009,07,05,05,26,11.90
2009,07,05,05,27,11.90
2009,07,05,05,28,12.00
2009,07,05,05,29,12.00
2009,07,05,05,30,12.10
2009,07,05,05,31,12.10
2009,07,05,05,32,12.20
2009,07,05,05,33,12.30
2009,07,05,05,34,12.30
2009,07,05,05,35,12.30
2009,07,05,05,36,12.30
2009,07,05,05,37,12.30
2009,07,05,05,38,12.40
2009,07,05,05,39,12.40
2009,07,05,05,40,12.40
2009,07,05,05,41,12.50
2009,07,05,05,42,12.40
2009,07,05,05,43,12.50
2009,07,05,05,44,12.50
2009,07,05,05,45,12.50
2009,07,05,05,46,12.50
2009,07,05,05,47,12.50
2009,07,05,05,48,12.60
2009,07,05,05,49,12.60
2009,07,05,05,50,12.60
2009,07,05,05,51,12.60
2009,07,05,05,52,12.60
2009,07,05,05,53,12.70
2009,07,05,05,54,12.70
2009,07,05,05,55,12.70
2009,07,05,05,56,12.80
2009,07,05,05,57,12.80
2009,07,05,05,58,12.80
2009,07,05,05,59,12.80
2009,07,05,06,00,12.80
2009,07,05,06,01,12.80
2009,07,05,06,02,12.80
2009,07,05,06,03,12.80
2009,07,05,06,04,12.90
2009,07,05,06,05,12.90
2009,07,05,06,06,12.90
2009,07,05,06,07,13.00
2009,07,05,06,08,13.00
2009,07,05,06,09,13.10
2009,07,05,06,10,13.20
2009,07,05,06,11,13.20
2009,07,05,06,12,13.30
2009,07,05,06,13,13.30
2009,07,05,06,14,13.40
2009,07,05,06,15,13.50
2009,07,05,06,16,13.50
2009,07,05,06,17,13.50
2009,07,05,06,18,13.60
2009,07,05,06,19,13.60
2009,07,05,06,20,13.60
2009,07,05,06,21,13.60
2009,07,05,06,22,13.60
2009,07,05,06,23,13.60
2009,07,05,06,24,13.60
2009,07,05,06,25,13.50
2009,07,05,06,26,13.50
2009,07,05,06,27,13.40
2009,07,05,06,28,13.40
2009,07,05,06,29,13.40
2009,07,05,06,30,13.40
2009,07,05,06,31,13.40
2009,07,05,06,32,13.40
2009,07,05,06,33,13.40
2009,07,05,06,34,13.40
2009,07,05,06,35,13.40
2009,07,05,06,36,13.50
2009,07,05,06,37,13.50
2009,07,05,06,38,13.50
2009,07,05,06,39,13.50
2009,07,05,06,40,13.50
2009,07,05,06,41,13.50
2009,07,05,06,42,13.50
2009,07,05,06,43,13.60
2009,07,05,06,44,13.60
2009,07,05,06,45,13.60
2009,07,05,06,46,13.60
2009,07,05,06,47,13.70
2009,07,05,06,48,13.70
2009,07,05,06,49,13.70
2009,07,05,06,50,13.70
2009,07,05,06,51,13.80
2009,07,05,06,52,13.80
2009,07,05,06,53,13.90
2009,07,05,06,54,13.90
2009,07,05,06,55,14.00
2009,07,05,06,56,14.00
2009,07,05,06,57,14.10
2009,07,05,06,58,14.20
2009,07,05,06,59,14.20
2009,07,05,07,00,14.20
2009,07,05,07,01,14.30
2009,07,05,07,02,14.30
2009,07,05,07,03,14.30
2009,07,05,07,04,14.40
2009,07,05,07,05,14.40
2009,07,05,07,06,14.40
2009,07,05,07,07,14.40
2009,07,05,07,08,14.40
2009,07,05,07,09,14.50
2009,07,05,07,10,14.50
2009,07,05,07,11,14.60
2009,07,05,07,12,14.60
2009,07,05,07,13,14.70
2009,07,05,07,14,14.70
2009,07,05,07,15,14.80
2009,07,05,07,16,14.80
2009,07,05,07,17,14.90
2009,07,05,07,18,15.00
2009,07,05,07,19,15.10
2009,07,05,07,20,15.20
2009,07,05,07,21,15.20
2009,07,05,07,22,15.30
2009,07,05,07,23,15.30
2009,07,05,07,24,15.40
2009,07,05,07,25,15.40
2009,07,05,07,26,15.50
2009,07,05,07,27,15.50
2009,07,05,07,28,15.50
2009,07,05,07,29,15.60
2009,07,05,07,30,15.60
2009,07,05,07,31,15.60
2009,07,05,07,32,15.70
2009,07,05,07,33,15.70
2009,07,05,07,34,15.80
2009,07,05,07,35,15.80
2009,07,05,07,36,15.80
2009,07,05,07,37,15.90
2009,07,05,07,38,16.00
2009,07,05,07,39,16.10
2009,07,05,07,40,16.10
2009,07,05,07,41,16.20
2009,07,05,07,42,16.30
2009,07,05,07,43,16.30
2009,07,05,07,44,16.40
2009,07,05,07,45,16.40
2009,07,05,07,46,16.40
2009,07,05,07,47,16.60
2009,07,05,07,48,16.60
2009,07,05,07,49,16.70
2009,07,05,07,50,16.80
2009,07,05,07,51,16.90
2009,07,05,07,52,16.90
2009,07,05,07,53,17.10
2009,07,05,07,54,17.20
2009,07,05,07,55,17.30
2009,07,05,07,56,17.40
2009,07,05,07,57,17.50
2009,07,05,07,58,17.70
2009,07,05,07,59,17.80
2009,07,05,08,00,17.90
2009,07,05,08,01,17.90
2009,07,05,08,02,17.90
2009,07,05,08,03,17.90
2009,07,05,08,04,17.90
2009,07,05,08,05,17.80
2009,07,05,08,06,17.80
2009,07,05,08,07,17.70
2009,07,05,08,08,17.60
2009,07,05,08,09,17.50
2009,07,05,08,10,17.50
2009,07,05,08,11,17.40
2009,07,05,08,12,17.30
2009,07,05,08,13,17.30
2009,07,05,08,14,17.30
2009,07,05,08,15,17.30
2009,07,05,08,16,17.30
2009,07,05,08,17,17.20
2009,07,05,08,18,17.20
2009,07,05,08,19,17.20
2009,07,05,08,20,17.20
2009,07,05,08,21,17.30
2009,07,05,08,22,17.30
2009,07,05,08,23,17.30
2009,07,05,08,24,17.30
2009,07,05,08,25,17.30
2009,07,05,08,26,17.30
2009,07,05,08,27,17.30
2009,07,05,08,28,17.30
2009,07,05,08,29,17.40
2009,07,05,08,30,17.40
2009,07,05,08,31,17.40
2009,07,05,08,32,17.50
2009,07,05,08,33,17.50
2009,07,05,08,34,17.50
2009,07,05,08,35,17.50
2009,07,05,08,36,17.50
2009,07,05,08,37,17.50
2009,07,05,08,38,17.60
2009,07,05,08,39,17.60
2009,07,05,08,40,17.60
2009,07,05,08,41,17.60
2009,07,05,08,42,17.60
2009,07,05,08,43,17.60
2009,07,05,08,44,17.60
2009,07,05,08,45,17.60
2009,07,05,08,46,17.60
2009,07,05,08,47,17.60
2009,07,05,08,48,17.60
2009,07,05,08,49,17.60
2009,07,05,08,50,17.60
2009,07,05,08,51,17.70
2009,07,05,08,52,17.70
2009,07,05,08,53,17.70
2009,07,05,08,54,17.70
2009,07,05,08,55,17.70
2009,07,05,08,56,17.70
2009,07,05,08,57,17.70
2009,07,05,08,58,17.70
2009,07,05,08,59,17.70
2009,07,05,09,00,17.70
2009,07,05,09,01,17.70
2009,07,05,09,02,17.70
2009,07,05,09,03,17.80
2009,07,05,09,04,17.80
2009,07,05,09,05,17.80
2009,07,05,09,06,17.80
2009,07,05,09,07,17.90
2009,07,05,09,08,17.90
2009,07,05,09,09,17.90
2009,07,05,09,10,17.90
2009,07,05,09,11,17.90
2009,07,05,09,12,17.90
2009,07,05,09,13,18.00
2009,07,05,09,14,18.10
2009,07,05,09,15,18.10
2009,07,05,09,16,18.10
2009,07,05,09,17,18.20
2009,07,05,09,18,18.20
2009,07,05,09,19,18.20
2009,07,05,09,20,18.30
2009,07,05,09,21,18.30
2009,07,05,09,22,18.40
2009,07,05,09,23,18.40
2009,07,05,09,24,18.50
2009,07,05,09,25,18.50
2009,07,05,09,26,18.60
2009,07,05,09,27,18.60
2009,07,05,09,28,18.60
2009,07,05,09,29,18.60
2009,07,05,09,30,18.70
2009,07,05,09,31,18.80
2009,07,05,09,32,18.80
2009,07,05,09,33,18.80
2009,07,05,09,34,18.90
2009,07,05,09,35,18.90
2009,07,05,09,36,18.90
2009,07,05,09,37,18.90
2009,07,05,09,38,18.90
2009,07,05,09,39,18.90
2009,07,05,09,40,18.90
2009,07,05,09,41,18.90
2009,07,05,09,42,19.10
2009,07,05,09,43,19.10
2009,07,05,09,44,19.10
2009,07,05,09,45,19.10
2009,07,05,09,46,19.10
2009,07,05,09,47,19.20
2009,07,05,09,48,19.30
2009,07,05,09,49,19.40
2009,07,05,09,50,19.50
2009,07,05,09,51,19.60
2009,07,05,09,52,19.60
2009,07,05,09,53,19.70
2009,07,05,09,54,19.70
2009,07,05,09,55,19.70
2009,07,05,09,56,19.80
2009,07,05,09,57,19.80
2009,07,05,09,58,19.90
2009,07,05,09,59,19.90
2009,07,05,10,00,19.90
2009,07,05,10,01,20.10
2009,07,05,10,02,20.10
2009,07,05,10,03,20.20
2009,07,05,10,04,20.20
2009,07,05,10,05,20.20
2009,07,05,10,06,20.20
2009,07,05,10,07,20.30
2009,07,05,10,08,20.30
2009,07,05,10,09,20.40
2009,07,05,10,10,20.50
2009,07,05,10,11,20.50
2009,07,05,10,12,20.50
2009,07,05,10,13,20.50
2009,07,05,10,14,20.60
2009,07,05,10,15,20.70
2009,07,05,10,16,20.70
2009,07,05,10,17,20.80
2009,07,05,10,18,20.70
2009,07,05,10,19,20.60
2009,07,05,10,20,20.60
2009,07,05,10,21,20.60
2009,07,05,10,22,20.60
2009,07,05,10,23,20.60
2009,07,05,10,24,20.60
2009,07,05,10,25,20.60
2009,07,05,10,26,20.60
2009,07,05,10,27,20.50
2009,07,05,10,28,20.50
2009,07,05,10,29,20.40
2009,07,05,10,30,20.40
2009,07,05,10,31,20.50
2009,07,05,10,32,20.60
2009,07,05,10,33,20.60
2009,07,05,10,34,20.80
2009,07,05,10,35,20.90
2009,07,05,10,36,21.00
2009,07,05,10,37,21.00
2009,07,05,10,38,21.00
2009,07,05,10,39,21.10
2009,07,05,10,40,21.00
2009,07,05,10,41,20.90
2009,07,05,10,42,20.70
2009,07,05,10,43,20.60
2009,07,05,10,44,20.50
2009,07,05,10,45,20.40
2009,07,05,10,46,20.40
2009,07,05,10,47,20.30
2009,07,05,10,48,20.20
2009,07,05,10,49,20.20
2009,07,05,10,50,20.10
2009,07,05,10,51,20.10
2009,07,05,10,52,20.10
2009,07,05,10,53,20.10
2009,07,05,10,54,20.10
2009,07,05,10,55,20.10
2009,07,05,10,56,20.10
2009,07,05,10,57,20.10
2009,07,05,10,58,20.10
2009,07,05,10,59,20.10
2009,07,05,11,00,20.10
2009,07,05,11,01,20.20
2009,07,05,11,02,20.20
2009,07,05,11,03,20.30
2009,07,05,11,04,20.40
2009,07,05,11,05,20.40
2009,07,05,11,06,20.40
2009,07,05,11,07,20.30
2009,07,05,11,08,20.20
2009,07,05,11,09,20.10
2009,07,05,11,10,20.10
2009,07,05,11,11,20.00
2009,07,05,11,12,19.90
2009,07,05,11,13,19.90
2009,07,05,11,14,19.90
2009,07,05,11,15,19.90
2009,07,05,11,16,19.90
2009,07,05,11,17,19.90
2009,07,05,11,18,19.90
2009,07,05,11,19,19.90
2009,07,05,11,20,20.00
2009,07,05,11,21,19.90
2009,07,05,11,22,19.90
2009,07,05,11,23,19.90
2009,07,05,11,24,19.90
2009,07,05,11,25,19.90
2009,07,05,11,26,19.90
2009,07,05,11,27,19.90
2009,07,05,11,28,19.90
2009,07,05,11,29,19.90
2009,07,05,11,30,20.10
2009,07,05,11,31,20.10
2009,07,05,11,32,20.10
2009,07,05,11,33,20.00
2009,07,05,11,34,19.90
2009,07,05,11,35,19.90
2009,07,05,11,36,19.90
2009,07,05,11,37,19.90
2009,07,05,11,38,19.80
2009,07,05,11,39,19.70
2009,07,05,11,40,19.70
2009,07,05,11,41,19.70
2009,07,05,11,42,19.70
2009,07,05,11,43,19.70
2009,07,05,11,44,19.70
2009,07,05,11,45,19.70
2009,07,05,11,46,19.70
2009,07,05,11,47,19.70
2009,07,05,11,48,19.70
2009,07,05,11,49,19.60
2009,07,05,11,50,19.60
2009,07,05,11,51,19.60
2009,07,05,11,52,19.60
2009,07,05,11,53,19.60
2009,07,05,11,54,19.70
2009,07,05,11,55,19.70
2009,07,05,11,56,19.80
2009,07,05,11,57,19.90
2009,07,05,11,58,19.90
2009,07,05,11,59,19.90
2009,07,05,12,00,20.10
2009,07,05,12,01,20.00
2009,07,05,12,02,19.90
2009,07,05,12,03,19.90
2009,07,05,12,04,19.90
2009,07,05,12,05,19.90
2009,07,05,12,06,19.90
2009,07,05,12,07,19.90
2009,07,05,12,08,19.90
2009,07,05,12,09,19.80
2009,07,05,12,10,19.80
2009,07,05,12,11,19.80
2009,07,05,12,12,19.80
2009,07,05,12,13,19.90
2009,07,05,12,14,19.90
2009,07,05,12,15,20.10
2009,07,05,12,16,20.20
2009,07,05,12,17,20.30
2009,07,05,12,18,20.40
2009,07,05,12,19,20.50
2009,07,05,12,20,20.60
2009,07,05,12,21,20.60
2009,07,05,12,22,20.50
2009,07,05,12,23,20.50
2009,07,05,12,24,20.50
2009,07,05,12,25,20.50
2009,07,05,12,26,20.60
2009,07,05,12,27,20.60
2009,07,05,12,28,20.70
2009,07,05,12,29,20.70
2009,07,05,12,30,20.70
2009,07,05,12,31,20.60
2009,07,05,12,32,20.50
2009,07,05,12,33,20.50
2009,07,05,12,34,20.50
2009,07,05,12,35,20.60
2009,07,05,12,36,20.60
2009,07,05,12,37,20.60
2009,07,05,12,38,20.70
2009,07,05,12,39,20.70
2009,07,05,12,40,20.70
2009,07,05,12,41,20.80
2009,07,05,12,42,20.80
2009,07,05,12,43,20.90
2009,07,05,12,44,20.90
2009,07,05,12,45,20.80
2009,07,05,12,46,20.80
2009,07,05,12,47,20.90
2009,07,05,12,48,20.90
2009,07,05,12,49,21.00
2009,07,05,12,50,20.90
2009,07,05,12,51,20.90
2009,07,05,12,52,20.80
2009,07,05,12,53,20.80
2009,07,05,12,54,20.70
2009,07,05,12,55,20.70
2009,07,05,12,56,20.60
2009,07,05,12,57,20.50
2009,07,05,12,58,20.50
2009,07,05,12,59,20.50
2009,07,05,13,00,20.40
2009,07,05,13,01,20.40
2009,07,05,13,02,20.40
2009,07,05,13,03,20.40
2009,07,05,13,04,20.50
2009,07,05,13,05,20.50
2009,07,05,13,06,20.50
2009,07,05,13,07,20.60
2009,07,05,13,08,20.70
2009,07,05,13,09,20.80
2009,07,05,13,10,20.80
2009,07,05,13,11,20.80
2009,07,05,13,12,20.90
2009,07,05,13,13,21.00
2009,07,05,13,14,21.00
2009,07,05,13,15,21.10
2009,07,05,13,16,21.10
2009,07,05,13,17,21.10
2009,07,05,13,18,21.10
2009,07,05,13,19,21.20
2009,07,05,13,20,21.30
2009,07,05,13,21,21.30
2009,07,05,13,22,21.30
2009,07,05,13,23,21.40
2009,07,05,13,24,21.60
2009,07,05,13,25,21.60
2009,07,05,13,26,21.70
2009,07,05,13,27,21.80
2009,07,05,13,28,21.80
2009,07,05,13,29,21.80
2009,07,05,13,30,21.90
2009,07,05,13,31,21.90
2009,07,05,13,32,22.00
2009,07,05,13,33,22.10
2009,07,05,13,34,22.10
2009,07,05,13,35,22.10
2009,07,05,13,36,22.00
2009,07,05,13,37,22.00
2009,07,05,13,38,21.90
2009,07,05,13,39,22.00
2009,07,05,13,40,22.00
2009,07,05,13,41,22.10
2009,07,05,13,42,22.30
2009,07,05,13,43,22.40
2009,07,05,13,44,22.40
2009,07,05,13,45,22.50
2009,07,05,13,46,22.60
2009,07,05,13,47,22.60
2009,07,05,13,48,22.60
2009,07,05,13,49,22.70
2009,07,05,13,50,22.70
2009,07,05,13,51,22.80
2009,07,05,13,52,22.80
2009,07,05,13,53,22.70
2009,07,05,13,54,22.70
2009,07,05,13,55,22.70
2009,07,05,13,56,22.70
2009,07,05,13,57,22.70
2009,07,05,13,58,22.60
2009,07,05,13,59,22.40
2009,07,05,14,00,22.30
2009,07,05,14,01,22.20
2009,07,05,14,02,22.10
2009,07,05,14,03,22.00
2009,07,05,14,04,22.00
2009,07,05,14,05,22.00
2009,07,05,14,06,21.90
2009,07,05,14,07,21.80
2009,07,05,14,08,21.70
2009,07,05,14,09,21.70
2009,07,05,14,10,21.60
2009,07,05,14,11,21.60
2009,07,05,14,12,21.60
2009,07,05,14,13,21.70
2009,07,05,14,14,21.90
2009,07,05,14,15,22.00
2009,07,05,14,16,22.10
2009,07,05,14,17,22.20
2009,07,05,14,18,22.40
2009,07,05,14,19,22.50
2009,07,05,14,20,22.60
2009,07,05,14,21,22.70
2009,07,05,14,22,22.90
2009,07,05,14,23,22.90
2009,07,05,14,24,22.90
2009,07,05,14,25,22.90
2009,07,05,14,26,22.90
2009,07,05,14,27,22.90
2009,07,05,14,28,22.90
2009,07,05,14,29,23.10
2009,07,05,14,30,23.10
2009,07,05,14,31,23.20
2009,07,05,14,32,23.10
2009,07,05,14,33,23.10
2009,07,05,14,34,23.10
2009,07,05,14,35,23.00
2009,07,05,14,36,22.90
2009,07,05,14,37,22.80
2009,07,05,14,38,22.70
2009,07,05,14,39,22.60
2009,07,05,14,40,22.70
2009,07,05,14,41,22.70
2009,07,05,14,42,22.60
2009,07,05,14,43,22.60
2009,07,05,14,44,22.50
2009,07,05,14,45,22.50
2009,07,05,14,46,22.50
2009,07,05,14,47,22.60
2009,07,05,14,48,22.60
2009,07,05,14,49,22.60
2009,07,05,14,50,22.50
2009,07,05,14,51,22.50
2009,07,05,14,52,22.50
2009,07,05,14,53,22.50
2009,07,05,14,54,22.50
2009,07,05,14,55,22.40
2009,07,05,14,56,22.40
2009,07,05,14,57,22.30
2009,07,05,14,58,22.40
2009,07,05,14,59,22.40
2009,07,05,15,00,22.50
2009,07,05,15,01,22.60
2009,07,05,15,02,22.80
2009,07,05,15,03,22.90
2009,07,05,15,04,23.10
2009,07,05,15,05,23.20
2009,07,05,15,06,23.30
2009,07,05,15,07,23.30
2009,07,05,15,08,23.30
2009,07,05,15,09,23.30
2009,07,05,15,10,23.30
2009,07,05,15,11,23.20
2009,07,05,15,12,23.20
2009,07,05,15,13,23.20
2009,07,05,15,14,23.20
2009,07,05,15,15,23.20
2009,07,05,15,16,23.20
2009,07,05,15,17,23.20
2009,07,05,15,18,23.30
2009,07,05,15,19,23.30
2009,07,05,15,20,23.30
2009,07,05,15,21,23.30
2009,07,05,15,22,23.20
2009,07,05,15,23,23.20
2009,07,05,15,24,23.20
2009,07,05,15,25,23.20
2009,07,05,15,26,23.30
2009,07,05,15,27,23.30
2009,07,05,15,28,23.30
2009,07,05,15,29,23.30
2009,07,05,15,30,23.40
2009,07,05,15,31,23.50
2009,07,05,15,32,23.70
2009,07,05,15,33,23.70
2009,07,05,15,34,23.80
2009,07,05,15,35,23.80
2009,07,05,15,36,23.70
2009,07,05,15,37,23.70
2009,07,05,15,38,23.70
2009,07,05,15,39,23.80
2009,07,05,15,40,23.80
2009,07,05,15,41,23.80
2009,07,05,15,42,23.70
2009,07,05,15,43,23.70
2009,07,05,15,44,23.80
2009,07,05,15,45,23.80
2009,07,05,15,46,23.90
2009,07,05,15,47,23.90
2009,07,05,15,48,24.10
2009,07,05,15,49,24.10
2009,07,05,15,50,24.10
2009,07,05,15,51,24.10
2009,07,05,15,52,24.00
2009,07,05,15,53,24.00
2009,07,05,15,54,24.10
2009,07,05,15,55,24.10
2009,07,05,15,56,24.00
2009,07,05,15,57,23.90
2009,07,05,15,58,24.10
2009,07,05,15,59,24.10
2009,07,05,16,00,24.10
2009,07,05,16,01,24.10
2009,07,05,16,02,24.10
2009,07,05,16,03,24.10
2009,07,05,16,04,24.10
2009,07,05,16,05,24.20
2009,07,05,16,06,24.10
2009,07,05,16,07,24.10
2009,07,05,16,08,24.10
2009,07,05,16,09,24.10
2009,07,05,16,10,23.90
2009,07,05,16,11,24.00
2009,07,05,16,12,24.10
2009,07,05,16,13,24.10
2009,07,05,16,14,24.10
2009,07,05,16,15,24.10
2009,07,05,16,16,24.10
2009,07,05,16,17,24.10
2009,07,05,16,18,24.10
2009,07,05,16,19,24.00
2009,07,05,16,20,23.90
2009,07,05,16,21,23.90
2009,07,05,16,22,24.00
2009,07,05,16,23,23.90
2009,07,05,16,24,23.90
2009,07,05,16,25,23.90
2009,07,05,16,26,23.90
2009,07,05,16,27,23.80
2009,07,05,16,28,23.70
2009,07,05,16,29,23.70
2009,07,05,16,30,23.70
2009,07,05,16,31,23.70
2009,07,05,16,32,23.70
2009,07,05,16,33,23.70
2009,07,05,16,34,23.70
2009,07,05,16,35,23.70
2009,07,05,16,36,23.70
2009,07,05,16,37,23.70
2009,07,05,16,38,23.80
2009,07,05,16,39,23.80
2009,07,05,16,40,23.90
2009,07,05,16,41,23.90
2009,07,05,16,42,23.90
2009,07,05,16,43,23.80
2009,07,05,16,44,23.80
2009,07,05,16,45,23.90
2009,07,05,16,46,24.00
2009,07,05,16,47,24.10
2009,07,05,16,48,24.10
2009,07,05,16,49,24.10
2009,07,05,16,50,24.10
2009,07,05,16,51,23.90
2009,07,05,16,52,23.90
2009,07,05,16,53,23.90
2009,07,05,16,54,23.90
2009,07,05,16,55,23.80
2009,07,05,16,56,23.70
2009,07,05,16,57,23.70
2009,07,05,16,58,23.70
2009,07,05,16,59,23.70
2009,07,05,17,00,23.70
2009,07,05,17,01,23.70
2009,07,05,17,02,23.70
2009,07,05,17,03,23.80
2009,07,05,17,04,23.90
2009,07,05,17,05,23.90
2009,07,05,17,06,23.90
2009,07,05,17,07,23.90
2009,07,05,17,08,24.00
2009,07,05,17,09,24.10
2009,07,05,17,10,24.10
2009,07,05,17,11,24.10
2009,07,05,17,12,24.10
2009,07,05,17,13,24.10
2009,07,05,17,14,24.10
2009,07,05,17,15,24.10
2009,07,05,17,16,24.10
2009,07,05,17,17,24.10
2009,07,05,17,18,24.10
2009,07,05,17,19,24.10